Location: Gungolding
(48.9246°N, 11.3502°E)
Time: 17:28:00
(UTC+02:00)

Explorer 7 - Visible Passes

Search period start: 08 April 2020 00:00
Search period end: 18 April 2020 00:00
Orbit: 485 x 679 km, 50.3° (Epoch: 07 April)

Date Brightness Start Highest point End Pass type
(mag) Time Alt. Az. Time Alt. Az. Time Alt. Az.
08 Apr 6.8 21:14:42 10° WSW 21:18:50 87° SSE 21:22:40 14° ENE visible
08 Apr 7.3 22:55:15 10° W 22:58:59 63° NW 22:58:59 63° NW visible
09 Apr 6.9 21:19:35 10° W 21:23:44 81° NNW 21:27:24 15° ENE visible
09 Apr 7.4 23:00:09 10° WNW 23:03:43 60° WNW 23:03:43 60° WNW visible
10 Apr 7.0 21:24:30 10° W 21:28:39 74° N 21:32:04 17° E visible
10 Apr 7.5 23:05:02 10° WNW 23:08:23 54° WNW 23:08:23 54° WNW visible
11 Apr 7.1 21:29:25 10° W 21:33:34 72° N 21:36:41 19° E visible
11 Apr 7.8 23:09:55 10° WNW 23:13:00 46° W 23:13:00 46° W visible
12 Apr 7.0 21:34:19 10° W 21:38:30 75° N 21:41:16 22° E visible
12 Apr 8.1 23:14:48 10° WNW 23:17:34 37° W 23:17:34 37° W visible
13 Apr 6.9 21:39:12 10° WNW 21:43:24 83° NNE 21:45:51 26° E visible
13 Apr 8.4 23:19:44 10° W 23:22:09 29° W 23:22:09 29° W visible
14 Apr 6.8 21:44:05 10° WNW 21:48:17 84° SSW 21:50:25 30° ESE visible
14 Apr 8.8 23:24:44 10° W 23:26:44 22° WSW 23:26:44 22° WSW visible
15 Apr 7.0 21:48:57 10° WNW 21:53:07 68° SSW 21:55:00 32° SE visible
15 Apr 9.2 23:29:55 10° W 23:31:19 16° WSW 23:31:19 16° WSW visible
16 Apr 7.3 21:53:51 10° WNW 21:57:55 51° SSW 21:59:36 32° SSE visible
16 Apr 9.5 23:35:27 10° WSW 23:35:55 11° WSW 23:35:55 11° WSW visible
17 Apr 7.8 21:58:48 10° W 22:02:41 37° SSW 22:04:14 28° S visible
